This is the latest recevied weather packets stored in our database for station/object N7SWJ. If no packets are shown the sender has not sent any weather packets the latest 10 day(s).
| Time | Temp. | Humidity | Pressure | Rain* | Wind** | Luminosity | Snow |
|---|---|---|---|---|---|---|---|
| 1777490641 | 15° C | 35% | 1019.7 hPa | 0 mm | - | 299 W/m² | - |
| 1777490337 | 15.56° C | 35% | 1019.9 hPa | 0 mm | - | 269 W/m² | - |
| 1777490035 | 15.56° C | 34% | 1019.9 hPa | 0 mm | - | 352 W/m² | - |
| 1777489732 | 16.67° C | 32% | 1019.8 hPa | 0 mm | - | 351 W/m² | - |
| 1777489430 | 16.67° C | 33% | 1019.9 hPa | 0 mm | - | 661 W/m² | - |
| 1777489127 | 16.67° C | 34% | 1019.9 hPa | 0 mm | - | 625 W/m² | - |
| 1777488824 | 16.11° C | 35% | 1019.9 hPa | 0 mm | - | 761 W/m² | - |
| 1777488521 | 15° C | 36% | 1020 hPa | 0 mm | - | 857 W/m² | - |
| 1777488218 | 15° C | 37% | 1020.4 hPa | 0 mm | - | 623 W/m² | - |
| 1777487916 | 15.56° C | 36% | 1020.1 hPa | 0 mm | - | 469 W/m² | - |
| 1777487614 | 15° C | 37% | 1020.6 hPa | 0 mm | - | 336 W/m² | - |
| 1777487310 | 14.44° C | 38% | 1020.3 hPa | 0 mm | - | 274 W/m² | - |
| 1777487008 | 13.89° C | 39% | 1020.4 hPa | 0 mm | - | 221 W/m² | - |
| 1777486704 | 13.89° C | 38% | 1020.4 hPa | 0 mm | - | 222 W/m² | - |
| 1777486402 | 13.89° C | 39% | 1020.5 hPa | 0 mm | - | 201 W/m² | - |
| 1777486099 | 13.89° C | 40% | 1020.7 hPa | 0 mm | - | 182 W/m² | - |
| 1777485795 | 13.89° C | 38% | 1020.4 hPa | 0 mm | - | 156 W/m² | - |
| 1777485491 | 13.89° C | 41% | 1020.6 hPa | 0 mm | - | 142 W/m² | - |
| 1777485187 | 13.89° C | 41% | 1020.8 hPa | 0 mm | - | 173 W/m² | - |
| 1777484883 | 13.89° C | 40% | 1020.6 hPa | 0 mm | - | 241 W/m² | - |
| 1777484581 | 14.44° C | 45% | 1020.6 hPa | 0 mm | - | 251 W/m² | - |
| 1777484278 | 13.89° C | 45% | 1020.6 hPa | 0 mm | - | 227 W/m² | - |
| 1777483974 | 14.44° C | 42% | 1021.1 hPa | 0 mm | - | 242 W/m² | - |
| 1777483671 | 14.44° C | 45% | 1020.9 hPa | 0 mm | - | 415 W/m² | - |
| 1777483366 | 14.44° C | 47% | 1021.1 hPa | 0 mm | - | 345 W/m² | - |
* Rain latest hour (hover to see other rain measurements)
** Current wind speed in m/s (hover to see current wind gust speed)